This is the latest recevied weather packets stored in our database for station/object WY7ATH-2. If no packets are shown the sender has not sent any weather packets the latest 10 day(s).
| Time | Temp. | Humidity | Pressure | Rain* | Wind** | Luminosity | Snow |
|---|---|---|---|---|---|---|---|
| 1777523959 | 3.33° C | - | - | 0 mm | 0 m/s | - | - |
| 1777522165 | 2.78° C | - | - | 0 mm | 0 m/s | - | - |
| 1777520972 | 2.22° C | - | - | 0 mm | 0 m/s | - | - |
| 1777520374 | 1.67° C | - | - | 0 mm | 0 m/s | - | - |
| 1777519773 | 1.67° C | - | - | 0 mm | 0 m/s | - | - |
| 1777519176 | 1.11° C | - | - | 0 mm | 0 m/s | - | - |
| 1777518580 | 1.67° C | - | - | 0 mm | 0 m/s | - | - |
| 1777517711 | 5.56° C | - | - | 11.94 mm | 0 m/s | - | - |
| 1777516789 | 2.22° C | - | - | 1.78 mm | 0 m/s | - | - |
| 1777515592 | 2.78° C | - | - | 1.78 mm | 0 m/s | - | - |
| 1777508422 | 7.22° C | - | - | 9.91 mm | 0 m/s | - | - |
| 1777507825 | 7.78° C | - | - | 9.91 mm | 0 m/s | - | - |
| 1777505434 | 6.11° C | - | - | 10.16 mm | 0 m/s | - | - |
| 1777497667 | 7.78° C | - | - | 11.94 mm | 0 m/s | - | - |
| 1777471377 | 11.67° C | - | - | 4.32 mm | 0 m/s | - | - |
| 1777470780 | 10° C | - | - | 1.78 mm | 0 m/s | - | - |
| 1777468985 | 6.67° C | - | - | 1.78 mm | 0 m/s | - | - |
| 1777467792 | 3.89° C | - | - | 1.78 mm | 0 m/s | - | - |
| 1777467195 | 3.89° C | - | - | 0 mm | 0 m/s | - | - |
| 1777465400 | 0.56° C | - | - | 0 mm | 0 m/s | - | - |
| 1777464804 | -0.56° C | - | - | 0 mm | 0 m/s | - | - |
| 1777461816 | -1.11° C | - | - | 0 mm | 0 m/s | - | - |
| 1777461219 | -1.11° C | - | - | 0 mm | 0 m/s | - | - |
| 1777460622 | -2.22° C | - | - | 0 mm | 0 m/s | - | - |
| 1777457634 | -1.67° C | - | - | 0 mm | 0 m/s | - | - |
* Rain latest hour (hover to see other rain measurements)
** Current wind speed in m/s (hover to see current wind gust speed)